Time,TemperatureF,DewpointF,PressureIn,WindDirection,WindDirectionDegrees,WindSpeedMPH,WindSpeedGustMPH,Humidity,HourlyPrecipIn,Conditions,Clouds,dailyrainin,SoftwareType,DateUTC
2013-06-23 00:01:00,66.2,58.0,30.14,North,32767,0.0,0.0,75,0.00,,,0.00,Wunderground v.1.15,2013-06-23 04:01:00,
2013-06-23 00:02:00,66.2,58.0,30.14,North,32767,0.0,0.0,75,0.00,,,0.00,Wunderground v.1.15,2013-06-23 04:02:00,
2013-06-23 00:04:00,66.2,58.0,30.14,North,32767,0.0,0.0,75,0.00,,,0.00,Wunderground v.1.15,2013-06-23 04:04:00,
2013-06-23 00:08:00,66.2,58.4,30.14,North,360,0.0,0.0,76,0.00,,,0.00,Wunderground v.1.15,2013-06-23 04:08:00,
2013-06-23 00:13:00,66.2,58.0,30.14,North,32767,0.0,0.0,75,0.00,,,0.00,Wunderground v.1.15,2013-06-23 04:13:00,
2013-06-23 00:19:00,66.3,57.8,30.14,North,360,0.0,0.0,74,0.00,,,0.00,Wunderground v.1.15,2013-06-23 04:19:00,
2013-06-23 00:26:00,66.3,58.1,30.14,North,32767,0.0,0.0,75,0.00,,,0.00,Wunderground v.1.15,2013-06-23 04:26:00,
2013-06-23 00:32:00,66.2,57.7,30.14,North,32767,0.0,0.0,74,0.00,,,0.00,Wunderground v.1.15,2013-06-23 04:32:00,
2013-06-23 00:38:00,66.1,57.9,30.14,North,32767,0.0,0.0,75,0.00,,,0.00,Wunderground v.1.15,2013-06-23 04:38:00,
2013-06-23 00:43:00,66.0,57.8,30.14,North,360,0.0,0.0,75,0.00,,,0.00,Wunderground v.1.15,2013-06-23 04:43:00,
2013-06-23 00:49:00,65.9,57.7,30.14,North,32767,0.0,0.0,75,0.00,,,0.00,Wunderground v.1.15,2013-06-23 04:49:00,
2013-06-23 00:56:00,65.8,57.7,30.14,North,32767,0.0,0.0,75,0.00,,,0.00,Wunderground v.1.15,2013-06-23 04:56:00,
2013-06-23 01:02:00,65.7,57.9,30.14,North,32767,0.0,0.0,76,0.00,,,0.00,Wunderground v.1.15,2013-06-23 05:02:00,
2013-06-23 01:08:00,65.7,58.3,30.14,North,32767,0.0,0.0,77,0.00,,,0.00,Wunderground v.1.15,2013-06-23 05:08:00,
2013-06-23 01:13:00,65.6,57.8,30.14,North,32767,0.0,0.0,76,0.00,,,0.00,Wunderground v.1.15,2013-06-23 05:13:00,
2013-06-23 01:18:00,65.7,57.9,30.13,North,32767,0.0,0.0,76,0.00,,,0.00,Wunderground v.1.15,2013-06-23 05:18:00,
2013-06-23 01:24:00,65.8,58.4,30.14,North,32767,0.0,0.0,77,0.00,,,0.00,Wunderground v.1.15,2013-06-23 05:24:00,
2013-06-23 01:31:00,65.9,58.1,30.14,North,32767,0.0,0.0,76,0.00,,,0.00,Wunderground v.1.15,2013-06-23 05:31:00,
2013-06-23 01:37:00,65.9,58.1,30.13,North,32767,0.0,0.0,76,0.00,,,0.00,Wunderground v.1.15,2013-06-23 05:37:00,
2013-06-23 01:43:00,66.0,58.2,30.13,North,32767,0.0,0.0,76,0.00,,,0.00,Wunderground v.1.15,2013-06-23 05:43:00,
2013-06-23 01:49:00,66.1,57.9,30.14,North,360,0.0,0.0,75,0.00,,,0.00,Wunderground v.1.15,2013-06-23 05:49:00,
2013-06-23 01:56:00,66.0,57.8,30.13,North,360,0.0,0.0,75,0.00,,,0.00,Wunderground v.1.15,2013-06-23 05:56:00,
2013-06-23 02:01:00,66.0,58.2,30.13,North,32767,0.0,0.0,76,0.00,,,0.00,Wunderground v.1.15,2013-06-23 06:01:00,
2013-06-23 02:06:00,66.0,58.2,30.13,North,32767,0.0,0.0,76,0.00,,,0.00,Wunderground v.1.15,2013-06-23 06:06:00,
2013-06-23 02:12:00,66.0,58.2,30.13,North,32767,0.0,0.0,76,0.00,,,0.00,Wunderground v.1.15,2013-06-23 06:12:00,
2013-06-23 02:17:00,66.0,58.6,30.13,North,360,0.0,0.0,77,0.00,,,0.00,Wunderground v.1.15,2013-06-23 06:17:00,
2013-06-23 02:23:00,66.0,58.2,30.13,North,32767,0.0,0.0,76,0.00,,,0.00,Wunderground v.1.15,2013-06-23 06:23:00,
2013-06-23 02:29:00,66.0,57.8,30.12,North,360,0.0,0.0,75,0.00,,,0.00,Wunderground v.1.15,2013-06-23 06:29:00,
2013-06-23 02:36:00,65.9,58.1,30.12,North,32767,0.0,0.0,76,0.00,,,0.00,Wunderground v.1.15,2013-06-23 06:36:00,
2013-06-23 02:42:00,65.9,58.5,30.12,North,32767,0.0,0.0,77,0.00,,,0.00,Wunderground v.1.15,2013-06-23 06:42:00,
2013-06-23 02:48:00,65.8,58.0,30.11,North,360,0.0,0.0,76,0.00,,,0.00,Wunderground v.1.15,2013-06-23 06:48:00,
2013-06-23 02:54:00,65.7,57.9,30.11,North,360,0.0,0.0,76,0.00,,,0.00,Wunderground v.1.15,2013-06-23 06:54:00,
2013-06-23 03:01:00,65.6,57.8,30.11,North,32767,0.0,0.0,76,0.00,,,0.00,Wunderground v.1.15,2013-06-23 07:01:00,
2013-06-23 03:06:00,65.6,57.5,30.11,North,360,0.0,0.0,75,0.00,,,0.00,Wunderground v.1.15,2013-06-23 07:06:00,
2013-06-23 03:12:00,65.6,57.5,30.10,North,32767,0.0,0.0,75,0.00,,,0.00,Wunderground v.1.15,2013-06-23 07:12:00,
2013-06-23 03:18:00,65.5,57.4,30.10,North,360,0.0,0.0,75,0.00,,,0.00,Wunderground v.1.15,2013-06-23 07:18:00,
2013-06-23 03:24:00,65.5,57.4,30.10,North,360,0.0,0.0,75,0.00,,,0.00,Wunderground v.1.15,2013-06-23 07:24:00,
2013-06-23 03:29:00,65.4,57.3,30.10,North,32767,0.0,0.0,75,0.00,,,0.00,Wunderground v.1.15,2013-06-23 07:29:00,
2013-06-23 03:36:00,65.3,57.2,30.10,North,32767,0.0,0.0,75,0.00,,,0.00,Wunderground v.1.15,2013-06-23 07:36:00,
2013-06-23 03:42:00,65.3,57.2,30.10,North,360,0.0,0.0,75,0.00,,,0.00,Wunderground v.1.15,2013-06-23 07:42:00,
2013-06-23 03:47:00,65.2,56.7,30.10,North,32767,0.0,0.0,74,0.00,,,0.00,Wunderground v.1.15,2013-06-23 07:47:00,
2013-06-23 03:53:00,65.2,56.7,30.10,North,32767,0.0,0.0,74,0.00,,,0.00,Wunderground v.1.15,2013-06-23 07:53:00,
2013-06-23 03:59:00,65.2,57.1,30.10,North,360,0.0,0.0,75,0.00,,,0.00,Wunderground v.1.15,2013-06-23 07:59:00,
2013-06-23 04:06:00,65.0,56.9,30.09,North,360,0.0,0.0,75,0.00,,,0.00,Wunderground v.1.15,2013-06-23 08:06:00,
2013-06-23 04:12:00,64.8,57.1,30.09,North,32767,0.0,0.0,76,0.00,,,0.00,Wunderground v.1.15,2013-06-23 08:12:00,
2013-06-23 04:18:00,64.5,56.8,30.09,North,32767,0.0,0.0,76,0.00,,,0.00,Wunderground v.1.15,2013-06-23 08:18:00,
2013-06-23 04:24:00,64.3,57.3,30.10,North,360,0.0,0.0,78,0.00,,,0.00,Wunderground v.1.15,2013-06-23 08:24:00,
2013-06-23 04:31:00,64.0,57.0,30.10,North,32767,0.0,0.0,78,0.00,,,0.00,Wunderground v.1.15,2013-06-23 08:31:00,
2013-06-23 04:36:00,63.9,56.9,30.10,North,32767,0.0,0.0,78,0.00,,,0.00,Wunderground v.1.15,2013-06-23 08:36:00,
2013-06-23 04:42:00,63.8,57.2,30.10,North,360,0.0,0.0,79,0.00,,,0.00,Wunderground v.1.15,2013-06-23 08:42:00,
2013-06-23 04:48:00,63.6,57.3,30.10,North,32767,0.0,0.0,80,0.00,,,0.00,Wunderground v.1.15,2013-06-23 08:48:00,
2013-06-23 04:53:00,63.5,57.2,30.10,North,32767,0.0,0.0,80,0.00,,,0.00,Wunderground v.1.15,2013-06-23 08:53:00,
2013-06-23 04:59:00,63.3,57.0,30.10,North,360,0.0,0.0,80,0.00,,,0.00,Wunderground v.1.15,2013-06-23 08:59:00,
2013-06-23 05:06:00,63.1,57.2,30.10,North,32767,0.0,0.0,81,0.00,,,0.00,Wunderground v.1.15,2013-06-23 09:06:00,
2013-06-23 05:12:00,63.1,57.2,30.10,North,32767,0.0,0.0,81,0.00,,,0.00,Wunderground v.1.15,2013-06-23 09:12:00,
2013-06-23 05:18:00,63.0,57.4,30.10,North,32767,0.0,0.0,82,0.00,,,0.00,Wunderground v.1.15,2013-06-23 09:18:00,
2013-06-23 05:23:00,63.0,57.4,30.10,North,32767,0.0,0.0,82,0.00,,,0.00,Wunderground v.1.15,2013-06-23 09:23:00,
2013-06-23 05:29:00,63.0,57.4,30.10,North,32767,0.0,0.0,82,0.00,,,0.00,Wunderground v.1.15,2013-06-23 09:29:00,
2013-06-23 05:36:00,62.9,57.3,30.10,North,32767,0.0,0.0,82,0.00,,,0.00,Wunderground v.1.15,2013-06-23 09:36:00,
2013-06-23 05:42:00,62.9,57.3,30.10,North,32767,0.0,0.0,82,0.00,,,0.00,Wunderground v.1.15,2013-06-23 09:42:00,
2013-06-23 05:48:00,62.9,57.7,30.10,North,360,0.0,0.0,83,0.00,,,0.00,Wunderground v.1.15,2013-06-23 09:48:00,
2013-06-23 05:54:00,62.9,57.7,30.10,North,32767,0.0,0.0,83,0.00,,,0.00,Wunderground v.1.15,2013-06-23 09:54:00,
2013-06-23 06:01:00,63.0,58.1,30.09,North,32767,0.0,0.0,84,0.00,,,0.00,Wunderground v.1.15,2013-06-23 10:01:00,
2013-06-23 06:06:00,63.1,57.9,30.10,North,32767,0.0,0.0,83,0.00,,,0.00,Wunderground v.1.15,2013-06-23 10:06:00,
2013-06-23 06:12:00,63.3,58.0,30.10,North,32767,0.0,0.0,83,0.00,,,0.00,Wunderground v.1.15,2013-06-23 10:12:00,
2013-06-23 06:18:00,63.5,58.2,30.10,North,360,0.0,0.0,83,0.00,,,0.00,Wunderground v.1.15,2013-06-23 10:18:00,
2013-06-23 06:24:00,63.6,58.7,30.10,North,32767,0.0,0.0,84,0.00,,,0.00,Wunderground v.1.15,2013-06-23 10:24:00,
2013-06-23 06:31:00,63.8,58.5,30.10,North,32767,0.0,0.0,83,0.00,,,0.00,Wunderground v.1.15,2013-06-23 10:31:00,
2013-06-23 06:37:00,63.9,58.6,30.10,North,360,0.0,0.0,83,0.00,,,0.00,Wunderground v.1.15,2013-06-23 10:37:00,
2013-06-23 06:43:00,64.1,58.8,30.10,North,360,0.0,0.0,83,0.00,,,0.00,Wunderground v.1.15,2013-06-23 10:43:00,
2013-06-23 06:48:00,64.4,59.5,30.10,North,360,0.0,0.0,84,0.00,,,0.00,Wunderground v.1.15,2013-06-23 10:48:00,
2013-06-23 06:54:00,64.7,59.4,30.11,North,360,0.0,0.0,83,0.00,,,0.00,Wunderground v.1.15,2013-06-23 10:54:00,
2013-06-23 06:59:00,64.9,59.9,30.11,North,32767,0.0,0.0,84,0.00,,,0.00,Wunderground v.1.15,2013-06-23 10:59:00,
2013-06-23 07:04:00,65.2,59.9,30.11,North,360,0.0,0.0,83,0.00,,,0.00,Wunderground v.1.15,2013-06-23 11:04:00,
2013-06-23 07:11:00,65.5,60.5,30.11,North,32767,0.0,0.0,84,0.00,,,0.00,Wunderground v.1.15,2013-06-23 11:11:00,
2013-06-23 07:16:00,65.6,60.3,30.12,North,360,0.0,0.0,83,0.00,,,0.00,Wunderground v.1.15,2013-06-23 11:16:00,
2013-06-23 07:21:00,65.8,60.5,30.12,North,32767,0.0,0.0,83,0.00,,,0.00,Wunderground v.1.15,2013-06-23 11:21:00,
2013-06-23 07:27:00,66.1,60.8,30.12,North,32767,0.0,0.0,83,0.00,,,0.00,Wunderground v.1.15,2013-06-23 11:27:00,
2013-06-23 07:33:00,66.5,61.2,30.12,North,32767,0.0,0.0,83,0.00,,,0.00,Wunderground v.1.15,2013-06-23 11:33:00,
2013-06-23 07:39:00,66.8,61.5,30.12,North,360,0.0,0.0,83,0.00,,,0.00,Wunderground v.1.15,2013-06-23 11:39:00,
2013-06-23 07:44:00,67.2,61.9,30.11,North,32767,0.0,0.0,83,0.00,,,0.00,Wunderground v.1.15,2013-06-23 11:44:00,
2013-06-23 07:51:00,67.8,62.4,30.12,North,32767,0.0,0.0,83,0.00,,,0.00,Wunderground v.1.15,2013-06-23 11:51:00,
2013-06-23 07:56:00,68.4,63.0,30.12,North,360,0.0,0.0,83,0.00,,,0.00,Wunderground v.1.15,2013-06-23 11:56:00,
2013-06-23 08:02:00,68.9,63.5,30.12,North,32767,0.0,0.0,83,0.00,,,0.00,Wunderground v.1.15,2013-06-23 12:02:00,
2013-06-23 08:08:00,69.4,63.7,30.12,North,32767,0.0,0.0,82,0.00,,,0.00,Wunderground v.1.15,2013-06-23 12:08:00,
2013-06-23 08:14:00,69.8,64.1,30.11,North,32767,0.0,0.0,82,0.00,,,0.00,Wunderground v.1.15,2013-06-23 12:14:00,
2013-06-23 08:21:00,70.2,64.4,30.11,North,32767,0.0,0.0,82,0.00,,,0.00,Wunderground v.1.15,2013-06-23 12:21:00,
2013-06-23 08:27:00,70.6,64.8,30.11,North,360,0.0,0.0,82,0.00,,,0.00,Wunderground v.1.15,2013-06-23 12:27:00,
2013-06-23 08:33:00,71.0,64.5,30.11,North,32767,0.0,0.0,80,0.00,,,0.00,Wunderground v.1.15,2013-06-23 12:33:00,
2013-06-23 08:39:00,71.3,64.8,30.11,North,32767,0.0,0.0,80,0.00,,,0.00,Wunderground v.1.15,2013-06-23 12:39:00,
2013-06-23 08:46:00,71.4,64.9,30.11,North,32767,0.0,0.0,80,0.00,,,0.00,Wunderground v.1.15,2013-06-23 12:46:00,
2013-06-23 08:52:00,71.6,64.7,30.11,North,32767,0.0,0.0,79,0.00,,,0.00,Wunderground v.1.15,2013-06-23 12:52:00,
2013-06-23 08:58:00,71.7,64.8,30.11,North,360,0.0,0.0,79,0.00,,,0.00,Wunderground v.1.15,2013-06-23 12:58:00,
2013-06-23 09:04:00,72.1,65.2,30.11,North,32767,0.0,0.0,79,0.00,,,0.00,Wunderground v.1.15,2013-06-23 13:04:00,
2013-06-23 09:09:00,72.4,65.9,30.11,North,32767,0.0,0.0,80,0.00,,,0.00,Wunderground v.1.15,2013-06-23 13:09:00,
2013-06-23 09:16:00,73.1,65.8,30.11,North,32767,0.0,0.0,78,0.00,,,0.00,Wunderground v.1.15,2013-06-23 13:16:00,
2013-06-23 09:22:00,73.4,66.5,30.11,North,32767,0.0,0.0,79,0.00,,,0.00,Wunderground v.1.15,2013-06-23 13:22:00,
2013-06-23 09:28:00,73.9,67.0,30.11,North,32767,0.0,0.0,79,0.00,,,0.00,Wunderground v.1.15,2013-06-23 13:28:00,
2013-06-23 09:34:00,74.4,67.1,30.10,North,32767,0.0,0.0,78,0.00,,,0.00,Wunderground v.1.15,2013-06-23 13:34:00,
2013-06-23 09:41:00,75.1,67.4,30.10,North,360,0.0,0.0,77,0.00,,,0.00,Wunderground v.1.15,2013-06-23 13:41:00,
2013-06-23 09:46:00,75.5,67.4,30.10,North,32767,0.0,0.0,76,0.00,,,0.00,Wunderground v.1.15,2013-06-23 13:46:00,
2013-06-23 09:52:00,76.1,68.4,30.10,North,360,0.0,0.0,77,0.00,,,0.00,Wunderground v.1.15,2013-06-23 13:52:00,
2013-06-23 09:57:00,76.3,68.2,30.10,North,32767,0.0,0.0,76,0.00,,,0.00,Wunderground v.1.15,2013-06-23 13:57:00,
2013-06-23 10:03:00,76.7,68.2,30.09,North,32767,0.0,0.0,75,0.00,,,0.00,Wunderground v.1.15,2013-06-23 14:03:00,
2013-06-23 10:08:00,77.1,68.6,30.09,North,32767,0.0,0.0,75,0.00,,,0.00,Wunderground v.1.15,2013-06-23 14:08:00,
2013-06-23 10:14:00,77.3,68.8,30.08,North,32767,0.0,0.0,75,0.00,,,0.00,Wunderground v.1.15,2013-06-23 14:14:00,
2013-06-23 10:21:00,77.9,68.9,30.09,North,32767,0.0,0.0,74,0.00,,,0.00,Wunderground v.1.15,2013-06-23 14:21:00,
2013-06-23 10:27:00,78.7,69.3,30.09,North,360,0.0,0.0,73,0.00,,,0.00,Wunderground v.1.15,2013-06-23 14:27:00,
2013-06-23 10:33:00,79.5,69.3,30.09,North,32767,0.0,0.0,71,0.00,,,0.00,Wunderground v.1.15,2013-06-23 14:33:00,
2013-06-23 10:39:00,79.5,69.7,30.08,North,360,0.0,0.0,72,0.00,,,0.00,Wunderground v.1.15,2013-06-23 14:39:00,
2013-06-23 10:46:00,79.6,69.8,30.08,North,360,0.0,0.0,72,0.00,,,0.00,Wunderground v.1.15,2013-06-23 14:46:00,
2013-06-23 10:52:00,79.8,70.4,30.08,North,32767,0.0,0.0,73,0.00,,,0.00,Wunderground v.1.15,2013-06-23 14:52:00,
2013-06-23 10:58:00,80.3,70.9,30.08,North,32767,0.0,0.0,73,0.00,,,0.00,Wunderground v.1.15,2013-06-23 14:58:00,
2013-06-23 11:04:00,81.0,71.1,30.08,North,32767,0.0,0.0,72,0.00,,,0.00,Wunderground v.1.15,2013-06-23 15:04:00,
2013-06-23 11:09:00,81.7,71.4,30.08,North,32767,0.0,0.0,71,0.00,,,0.00,Wunderground v.1.15,2013-06-23 15:09:00,
2013-06-23 11:16:00,82.0,72.1,30.08,North,32767,0.0,0.0,72,0.00,,,0.00,Wunderground v.1.15,2013-06-23 15:16:00,
2013-06-23 11:22:00,82.3,70.7,30.08,North,360,0.0,0.0,68,0.00,,,0.00,Wunderground v.1.15,2013-06-23 15:22:00,
2013-06-23 11:27:00,82.3,70.7,30.08,North,32767,0.0,0.0,68,0.00,,,0.00,Wunderground v.1.15,2013-06-23 15:27:00,
2013-06-23 11:34:00,82.9,72.1,30.08,North,32767,0.0,0.0,70,0.00,,,0.00,Wunderground v.1.15,2013-06-23 15:34:00,
2013-06-23 11:39:00,83.2,71.5,30.08,North,360,0.0,0.0,68,0.00,,,0.00,Wunderground v.1.15,2013-06-23 15:39:00,
2013-06-23 11:46:00,83.3,71.6,30.08,North,32767,0.0,0.0,68,0.00,,,0.00,Wunderground v.1.15,2013-06-23 15:46:00,
2013-06-23 11:52:00,83.6,71.9,30.07,North,32767,0.0,0.0,68,0.00,,,0.00,Wunderground v.1.15,2013-06-23 15:52:00,
2013-06-23 11:58:00,84.0,71.9,30.07,North,360,0.0,0.0,67,0.00,,,0.00,Wunderground v.1.15,2013-06-23 15:58:00,
2013-06-23 12:04:00,84.4,72.7,30.07,North,32767,0.0,0.0,68,0.00,,,0.00,Wunderground v.1.15,2013-06-23 16:04:00,
2013-06-23 12:11:00,85.1,72.9,30.07,North,32767,0.0,0.0,67,0.00,,,0.00,Wunderground v.1.15,2013-06-23 16:11:00,
2013-06-23 12:17:00,85.1,72.9,30.07,North,32767,0.0,0.0,67,0.00,,,0.00,Wunderground v.1.15,2013-06-23 16:17:00,
2013-06-23 12:23:00,85.3,73.1,30.07,North,360,0.0,0.0,67,0.00,,,0.00,Wunderground v.1.15,2013-06-23 16:23:00,
2013-06-23 12:29:00,85.7,73.0,30.07,North,32767,0.0,0.0,66,0.00,,,0.00,Wunderground v.1.15,2013-06-23 16:29:00,
2013-06-23 12:36:00,86.1,73.0,30.07,North,32767,0.0,0.0,65,0.00,,,0.00,Wunderground v.1.15,2013-06-23 16:36:00,
2013-06-23 12:41:00,86.4,73.2,30.07,North,32767,0.0,0.0,65,0.00,,,0.00,Wunderground v.1.15,2013-06-23 16:41:00,
2013-06-23 12:47:00,86.6,73.4,30.06,North,360,0.0,0.0,65,0.00,,,0.00,Wunderground v.1.15,2013-06-23 16:47:00,
2013-06-23 12:53:00,86.5,72.9,30.06,North,360,0.0,0.0,64,0.00,,,0.00,Wunderground v.1.15,2013-06-23 16:53:00,
2013-06-23 12:58:00,86.4,72.3,30.06,North,32767,0.0,0.0,63,0.00,,,0.00,Wunderground v.1.15,2013-06-23 16:58:00,
2013-06-23 12:59:00,86.3,72.2,30.06,North,32767,0.0,0.0,63,0.00,,,0.00,Wunderground v.1.15,2013-06-23 16:59:00,
2013-06-23 13:01:00,86.2,73.0,30.06,North,360,0.0,0.0,65,0.00,,,0.00,Wunderground v.1.15,2013-06-23 17:01:00,
2013-06-23 13:04:00,86.0,72.4,30.06,North,360,0.0,0.0,64,0.00,,,0.00,Wunderground v.1.15,2013-06-23 17:04:00,
2013-06-23 13:06:00,85.9,72.3,30.06,North,32767,0.0,0.0,64,0.00,,,0.00,Wunderground v.1.15,2013-06-23 17:06:00,
2013-06-23 13:12:00,85.9,73.2,30.06,North,360,0.0,0.0,66,0.00,,,0.00,Wunderground v.1.15,2013-06-23 17:12:00,
2013-06-23 13:17:00,86.0,72.9,30.05,North,360,0.0,0.0,65,0.00,,,0.00,Wunderground v.1.15,2013-06-23 17:17:00,
2013-06-23 13:23:00,86.5,72.9,30.05,North,32767,0.0,0.0,64,0.00,,,0.00,Wunderground v.1.15,2013-06-23 17:23:00,
2013-06-23 13:29:00,86.9,73.7,30.05,North,32767,0.0,0.0,65,0.00,,,0.00,Wunderground v.1.15,2013-06-23 17:29:00,
2013-06-23 13:34:00,87.4,75.1,30.05,North,360,0.0,0.0,67,0.00,,,0.00,Wunderground v.1.15,2013-06-23 17:34:00,
2013-06-23 13:41:00,87.6,74.4,30.05,North,360,0.0,0.0,65,0.00,,,0.00,Wunderground v.1.15,2013-06-23 17:41:00,
2013-06-23 13:47:00,87.9,74.7,30.05,North,32767,0.0,0.0,65,0.00,,,0.00,Wunderground v.1.15,2013-06-23 17:47:00,
2013-06-23 13:52:00,87.6,74.8,30.04,North,32767,0.0,0.0,66,0.00,,,0.00,Wunderground v.1.15,2013-06-23 17:52:00,
2013-06-23 13:58:00,87.7,76.3,30.04,North,32767,0.0,0.0,69,0.00,,,0.00,Wunderground v.1.15,2013-06-23 17:58:00,
2013-06-23 14:04:00,87.3,73.2,30.04,North,32767,0.0,0.0,63,0.00,,,0.00,Wunderground v.1.15,2013-06-23 18:04:00,
2013-06-23 14:09:00,87.2,74.0,30.04,North,32767,0.0,0.0,65,0.00,,,0.00,Wunderground v.1.15,2013-06-23 18:09:00,
2013-06-23 14:16:00,86.9,75.1,30.04,North,360,0.0,0.0,68,0.00,,,0.00,Wunderground v.1.15,2013-06-23 18:16:00,
2013-06-23 14:22:00,87.3,73.2,30.03,North,32767,0.0,0.0,63,0.00,,,0.00,Wunderground v.1.15,2013-06-23 18:22:00,
2013-06-23 14:29:00,87.5,73.3,30.03,North,360,0.0,0.0,63,0.00,,,0.00,Wunderground v.1.15,2013-06-23 18:29:00,
2013-06-23 14:34:00,87.6,74.4,30.03,North,360,0.0,0.0,65,0.00,,,0.00,Wunderground v.1.15,2013-06-23 18:34:00,
2013-06-23 14:41:00,88.0,73.3,30.02,North,360,0.0,0.0,62,0.00,,,0.00,Wunderground v.1.15,2013-06-23 18:41:00,
2013-06-23 14:47:00,87.8,73.6,30.02,North,32767,0.0,0.0,63,0.00,,,0.00,Wunderground v.1.15,2013-06-23 18:47:00,
2013-06-23 14:52:00,87.6,73.9,30.02,North,360,0.0,0.0,64,0.00,,,0.00,Wunderground v.1.15,2013-06-23 18:52:00,
2013-06-23 14:58:00,87.9,73.3,30.02,North,32767,0.0,0.0,62,0.00,,,0.00,Wunderground v.1.15,2013-06-23 18:58:00,
2013-06-23 15:03:00,88.1,73.9,30.02,North,32767,0.0,0.0,63,0.00,,,0.00,Wunderground v.1.15,2013-06-23 19:03:00,
2013-06-23 15:09:00,87.9,72.8,30.02,North,360,0.0,0.0,61,0.00,,,0.00,Wunderground v.1.15,2013-06-23 19:09:00,
2013-06-23 15:14:00,87.9,72.8,30.02,North,32767,0.0,0.0,61,0.00,,,0.00,Wunderground v.1.15,2013-06-23 19:14:00,
2013-06-23 15:21:00,88.1,72.5,30.01,North,32767,0.0,0.0,60,0.00,,,0.00,Wunderground v.1.15,2013-06-23 19:21:00,
2013-06-23 15:27:00,88.1,72.0,30.01,North,360,0.0,0.0,59,0.00,,,0.00,Wunderground v.1.15,2013-06-23 19:27:00,
2013-06-23 15:32:00,88.1,72.0,30.01,North,360,0.0,0.0,59,0.00,,,0.00,Wunderground v.1.15,2013-06-23 19:32:00,
2013-06-23 15:38:00,88.1,73.9,30.01,North,360,0.0,0.0,63,0.00,,,0.00,Wunderground v.1.15,2013-06-23 19:38:00,
2013-06-23 15:44:00,88.4,72.7,30.00,North,32767,0.0,0.0,60,0.00,,,0.00,Wunderground v.1.15,2013-06-23 19:44:00,
2013-06-23 15:51:00,88.0,72.9,30.01,North,360,0.0,0.0,61,0.00,,,0.00,Wunderground v.1.15,2013-06-23 19:51:00,
2013-06-23 15:57:00,87.8,72.7,30.00,North,32767,0.0,0.0,61,0.00,,,0.00,Wunderground v.1.15,2013-06-23 19:57:00,
2013-06-23 16:03:00,87.9,71.8,30.01,North,360,0.0,0.0,59,0.00,,,0.00,Wunderground v.1.15,2013-06-23 20:03:00,
2013-06-23 16:09:00,87.8,72.2,30.00,North,360,0.0,0.0,60,0.00,,,0.00,Wunderground v.1.15,2013-06-23 20:09:00,
2013-06-23 16:14:00,87.4,72.3,30.00,North,32767,0.0,0.0,61,0.00,,,0.00,Wunderground v.1.15,2013-06-23 20:14:00,
2013-06-23 16:21:00,87.1,71.0,30.00,North,32767,0.0,0.0,59,0.00,,,0.00,Wunderground v.1.15,2013-06-23 20:21:00,
2013-06-23 16:27:00,86.7,71.2,30.00,North,32767,0.0,0.0,60,0.00,,,0.00,Wunderground v.1.15,2013-06-23 20:27:00,
2013-06-23 16:32:00,86.7,71.2,30.00,North,32767,0.0,0.0,60,0.00,,,0.00,Wunderground v.1.15,2013-06-23 20:32:00,
2013-06-23 16:38:00,86.4,70.9,30.00,North,32767,0.0,0.0,60,0.00,,,0.00,Wunderground v.1.15,2013-06-23 20:38:00,
2013-06-23 16:44:00,86.1,72.0,30.00,North,360,0.0,0.0,63,0.00,,,0.00,Wunderground v.1.15,2013-06-23 20:44:00,
2013-06-23 16:49:00,85.8,70.8,30.00,North,32767,0.0,0.0,61,0.00,,,0.00,Wunderground v.1.15,2013-06-23 20:49:00,
2013-06-23 16:56:00,85.6,72.0,29.99,North,32767,0.0,0.0,64,0.00,,,0.00,Wunderground v.1.15,2013-06-23 20:56:00,
2013-06-23 17:01:00,85.5,70.5,29.99,North,32767,0.0,0.0,61,0.00,,,0.00,Wunderground v.1.15,2013-06-23 21:01:00,
2013-06-23 17:06:00,85.3,69.8,29.99,North,32767,0.0,0.0,60,0.00,,,0.00,Wunderground v.1.15,2013-06-23 21:06:00,
2013-06-23 17:12:00,85.1,69.7,29.99,North,360,0.0,0.0,60,0.00,,,0.00,Wunderground v.1.15,2013-06-23 21:12:00,
2013-06-23 17:17:00,84.8,69.9,29.99,North,360,0.0,0.0,61,0.00,,,0.00,Wunderground v.1.15,2013-06-23 21:17:00,
2013-06-23 17:23:00,84.7,70.2,29.99,North,360,0.0,0.0,62,0.00,,,0.00,Wunderground v.1.15,2013-06-23 21:23:00,
2013-06-23 17:29:00,84.5,69.6,29.99,North,32767,0.0,0.0,61,0.00,,,0.00,Wunderground v.1.15,2013-06-23 21:29:00,
2013-06-23 17:36:00,84.5,70.5,29.99,North,32767,0.0,0.0,63,0.00,,,0.00,Wunderground v.1.15,2013-06-23 21:36:00,
2013-06-23 17:42:00,84.1,70.1,29.99,North,32767,0.0,0.0,63,0.00,,,0.00,Wunderground v.1.15,2013-06-23 21:42:00,
2013-06-23 17:48:00,83.9,70.4,29.99,North,32767,0.0,0.0,64,0.00,,,0.00,Wunderground v.1.15,2013-06-23 21:48:00,
2013-06-23 17:54:00,83.6,70.6,29.98,North,360,0.0,0.0,65,0.00,,,0.00,Wunderground v.1.15,2013-06-23 21:54:00,
2013-06-23 17:59:00,83.3,69.4,29.99,North,360,0.0,0.0,63,0.00,,,0.00,Wunderground v.1.15,2013-06-23 21:59:00,
2013-06-23 18:04:00,83.0,69.6,29.99,North,32767,0.0,0.0,64,0.00,,,0.00,Wunderground v.1.15,2013-06-23 22:04:00,
2013-06-23 18:11:00,82.6,69.2,29.98,North,32767,0.0,0.0,64,0.00,,,0.00,Wunderground v.1.15,2013-06-23 22:11:00,
2013-06-23 18:16:00,82.4,69.4,29.98,North,32767,0.0,0.0,65,0.00,,,0.00,Wunderground v.1.15,2013-06-23 22:16:00,
2013-06-23 18:22:00,82.2,69.7,29.98,North,360,0.0,0.0,66,0.00,,,0.00,Wunderground v.1.15,2013-06-23 22:22:00,
2013-06-23 18:28:00,81.9,69.9,29.99,North,360,0.0,0.0,67,0.00,,,0.00,Wunderground v.1.15,2013-06-23 22:28:00,
2013-06-23 18:34:00,81.8,69.3,29.99,North,360,0.0,0.0,66,0.00,,,0.00,Wunderground v.1.15,2013-06-23 22:34:00,
2013-06-23 18:41:00,81.6,69.6,29.99,North,360,0.0,0.0,67,0.00,,,0.00,Wunderground v.1.15,2013-06-23 22:41:00,
2013-06-23 18:46:00,81.4,69.8,30.00,North,32767,0.0,0.0,68,0.00,,,0.00,Wunderground v.1.15,2013-06-23 22:46:00,
2013-06-23 18:51:00,81.2,69.2,30.00,North,360,0.0,0.0,67,0.00,,,0.00,Wunderground v.1.15,2013-06-23 22:51:00,
2013-06-23 18:57:00,80.9,69.3,30.00,North,32767,0.0,0.0,68,0.00,,,0.00,Wunderground v.1.15,2013-06-23 22:57:00,
2013-06-23 19:02:00,80.7,69.6,30.00,North,32767,0.0,0.0,69,0.00,,,0.00,Wunderground v.1.15,2013-06-23 23:02:00,
2013-06-23 19:08:00,80.4,69.3,30.00,North,32767,0.0,0.0,69,0.00,,,0.00,Wunderground v.1.15,2013-06-23 23:08:00,
2013-06-23 19:14:00,80.1,69.4,30.00,North,360,0.0,0.0,70,0.00,,,0.00,Wunderground v.1.15,2013-06-23 23:14:00,
2013-06-23 19:21:00,79.7,69.5,30.00,North,32767,0.0,0.0,71,0.00,,,0.00,Wunderground v.1.15,2013-06-23 23:21:00,
2013-06-23 19:26:00,79.4,69.2,30.00,North,32767,0.0,0.0,71,0.00,,,0.00,Wunderground v.1.15,2013-06-23 23:26:00,
2013-06-23 19:32:00,79.2,69.4,30.00,North,32767,0.0,0.0,72,0.00,,,0.00,Wunderground v.1.15,2013-06-23 23:32:00,
2013-06-23 19:37:00,78.9,69.5,30.00,North,360,0.0,0.0,73,0.00,,,0.00,Wunderground v.1.15,2013-06-23 23:37:00,
2013-06-23 19:43:00,78.7,69.3,29.99,North,32767,0.0,0.0,73,0.00,,,0.00,Wunderground v.1.15,2013-06-23 23:43:00,
2013-06-23 19:48:00,78.6,69.6,29.99,North,32767,0.0,0.0,74,0.00,,,0.00,Wunderground v.1.15,2013-06-23 23:48:00,
2013-06-23 19:54:00,78.3,69.7,29.99,North,32767,0.0,0.0,75,0.00,,,0.00,Wunderground v.1.15,2013-06-23 23:54:00,
2013-06-23 20:01:00,78.0,69.4,30.00,North,32767,0.0,0.0,75,0.00,,,0.00,Wunderground v.1.15,2013-06-24 00:01:00,
2013-06-23 20:06:00,77.8,69.6,30.00,North,360,0.0,0.0,76,0.00,,,0.00,Wunderground v.1.15,2013-06-24 00:06:00,
2013-06-23 20:12:00,77.5,69.3,30.00,North,32767,0.0,0.0,76,0.00,,,0.00,Wunderground v.1.15,2013-06-24 00:12:00,
2013-06-23 20:18:00,77.3,69.5,30.00,North,360,0.0,0.0,77,0.00,,,0.00,Wunderground v.1.15,2013-06-24 00:18:00,
2013-06-23 20:24:00,77.1,69.3,30.00,North,32767,0.0,0.0,77,0.00,,,0.00,Wunderground v.1.15,2013-06-24 00:24:00,
2013-06-23 20:29:00,76.9,69.5,30.00,North,32767,0.0,0.0,78,0.00,,,0.00,Wunderground v.1.15,2013-06-24 00:29:00,
2013-06-23 20:36:00,76.7,69.3,30.00,North,360,0.0,0.0,78,0.00,,,0.00,Wunderground v.1.15,2013-06-24 00:36:00,
2013-06-23 20:42:00,76.6,69.6,30.00,North,32767,0.0,0.0,79,0.00,,,0.00,Wunderground v.1.15,2013-06-24 00:42:00,
2013-06-23 20:48:00,76.4,69.4,30.00,North,360,0.0,0.0,79,0.00,,,0.00,Wunderground v.1.15,2013-06-24 00:48:00,
2013-06-23 20:53:00,76.3,69.3,30.00,North,32767,0.0,0.0,79,0.00,,,0.00,Wunderground v.1.15,2013-06-24 00:53:00,
2013-06-23 20:59:00,76.1,69.1,30.01,North,32767,0.0,0.0,79,0.00,,,0.00,Wunderground v.1.15,2013-06-24 00:59:00,
2013-06-23 21:06:00,76.0,69.4,30.01,North,32767,0.0,0.0,80,0.00,,,0.00,Wunderground v.1.15,2013-06-24 01:06:00,
2013-06-23 21:12:00,75.9,69.3,30.01,North,32767,0.0,0.0,80,0.00,,,0.00,Wunderground v.1.15,2013-06-24 01:12:00,
2013-06-23 21:18:00,75.8,69.2,30.02,North,32767,0.0,0.0,80,0.00,,,0.00,Wunderground v.1.15,2013-06-24 01:18:00,
2013-06-23 21:24:00,75.7,69.5,30.02,North,360,0.0,0.0,81,0.00,,,0.00,Wunderground v.1.15,2013-06-24 01:24:00,
2013-06-23 21:29:00,75.6,69.4,30.02,North,32767,0.0,0.0,81,0.00,,,0.00,Wunderground v.1.15,2013-06-24 01:29:00,
2013-06-23 21:36:00,75.4,69.2,30.03,North,32767,0.0,0.0,81,0.00,,,0.00,Wunderground v.1.15,2013-06-24 01:36:00,
2013-06-23 21:42:00,75.3,69.4,30.03,North,360,0.0,0.0,82,0.00,,,0.00,Wunderground v.1.15,2013-06-24 01:42:00,
2013-06-23 21:47:00,75.3,69.4,30.03,North,360,0.0,0.0,82,0.00,,,0.00,Wunderground v.1.15,2013-06-24 01:47:00,
2013-06-23 21:53:00,75.1,69.2,30.03,North,360,0.0,0.0,82,0.00,,,0.00,Wunderground v.1.15,2013-06-24 01:53:00,
2013-06-23 21:59:00,75.0,69.1,30.03,North,32767,0.0,0.0,82,0.00,,,0.00,Wunderground v.1.15,2013-06-24 01:59:00,
2013-06-23 22:06:00,74.8,69.3,30.03,North,32767,0.0,0.0,83,0.00,,,0.00,Wunderground v.1.15,2013-06-24 02:06:00,
2013-06-23 22:12:00,74.7,69.2,30.03,North,360,0.0,0.0,83,0.00,,,0.00,Wunderground v.1.15,2013-06-24 02:12:00,
2013-06-23 22:17:00,74.6,69.1,30.03,North,32767,0.0,0.0,83,0.00,,,0.00,Wunderground v.1.15,2013-06-24 02:17:00,
2013-06-23 22:23:00,74.4,68.9,30.03,North,32767,0.0,0.0,83,0.00,,,0.00,Wunderground v.1.15,2013-06-24 02:23:00,
2013-06-23 22:29:00,74.3,68.8,30.03,North,360,0.0,0.0,83,0.00,,,0.00,Wunderground v.1.15,2013-06-24 02:29:00,
2013-06-23 22:36:00,74.2,68.7,30.03,North,360,0.0,0.0,83,0.00,,,0.00,Wunderground v.1.15,2013-06-24 02:36:00,
2013-06-23 22:42:00,74.1,69.0,30.03,North,32767,0.0,0.0,84,0.00,,,0.00,Wunderground v.1.15,2013-06-24 02:42:00,
2013-06-23 22:48:00,74.0,68.9,30.03,North,32767,0.0,0.0,84,0.00,,,0.00,Wunderground v.1.15,2013-06-24 02:48:00,
2013-06-23 22:53:00,73.9,68.8,30.03,North,32767,0.0,0.0,84,0.00,,,0.00,Wunderground v.1.15,2013-06-24 02:53:00,
2013-06-23 22:59:00,73.8,68.7,30.03,North,360,0.0,0.0,84,0.00,,,0.00,Wunderground v.1.15,2013-06-24 02:59:00,
2013-06-23 23:04:00,73.7,68.6,30.02,North,32767,0.0,0.0,84,0.00,,,0.00,Wunderground v.1.15,2013-06-24 03:04:00,
2013-06-23 23:09:00,73.5,68.4,30.02,North,360,0.0,0.0,84,0.00,,,0.00,Wunderground v.1.15,2013-06-24 03:09:00,
2013-06-23 23:16:00,73.4,68.3,30.02,North,360,0.0,0.0,84,0.00,,,0.00,Wunderground v.1.15,2013-06-24 03:16:00,
2013-06-23 23:21:00,73.3,68.2,30.02,North,360,0.0,0.0,84,0.00,,,0.00,Wunderground v.1.15,2013-06-24 03:21:00,
2013-06-23 23:27:00,73.3,68.2,30.01,North,360,0.0,0.0,84,0.00,,,0.00,Wunderground v.1.15,2013-06-24 03:27:00,
2013-06-23 23:33:00,73.2,68.1,30.01,North,32767,0.0,0.0,84,0.00,,,0.00,Wunderground v.1.15,2013-06-24 03:33:00,
2013-06-23 23:39:00,73.1,68.0,30.01,North,32767,0.0,0.0,84,0.00,,,0.00,Wunderground v.1.15,2013-06-24 03:39:00,
2013-06-23 23:46:00,73.1,68.3,30.00,North,32767,0.0,0.0,85,0.00,,,0.00,Wunderground v.1.15,2013-06-24 03:46:00,
2013-06-23 23:52:00,73.0,68.2,30.01,North,32767,0.0,0.0,85,0.00,,,0.00,Wunderground v.1.15,2013-06-24 03:52:00,
2013-06-23 23:58:00,73.0,68.2,30.00,North,32767,0.0,0.0,85,0.00,,,0.00,Wunderground v.1.15,2013-06-24 03:58:00,